{"data":{"norad_id":57629,"epoch":"2026-09-21T23:14:30.870240Z","epoch_age_seconds":83905,"freshness":"FRESH","line1":"1 57629U 23121D   26264.96841285  .00000474  00000+0  12300-3 0  9994","line2":"2 57629  45.0049 176.9926 0007356  45.6274 314.5185 14.63054714165972","mean_motion":14.63054714,"eccentricity":0.0007356,"inclination_deg":45.0049,"raan_deg":176.9926,"arg_perigee_deg":45.6274,"mean_anomaly_deg":314.5185,"bstar":0.000123,"rev_number":16597,"period_min":98.424206984237,"perigee_km":678.13334671209,"apogee_km":688.52217366728,"semimajor_km":7061.4647601897,"source":"CELESTRAK","updated_at":"2026-09-22T09:00:26.242513Z"}}